ARIANE 5 DEB (SYLDA)

Satellite information

Favourite Embed

Satellite Type and Status

DEBRISIN ORBIT

Key statistics

Satellite ARIANE 5 DEB (SYLDA) at a glance.

Uptime

7955

Days in orbit

Revolutions

≈ 2.3

Per day

Orbit

GTO

Geostationary Transfer Orbit

Inclination

7.4

Latest

Satellite identification and parameters

Extended collection of information and parameters for ARIANE 5 DEB (SYLDA).

Object identification

Identified? True

Debris? True

Object name: ARIANE 5 DEB (SYLDA)

International designator: 2003-043F

Object number (NORAD): 27952

Object ID (CCSDS): 27952

Country: FRANCE (FR)

Current information (Y/N): Y

RCS size: LARGE

Orbital parameters

Period: 636.304 minutes

Inclination: 7.4084 deg

SMA: 24505.86 km

Apoapsis: 35585.364 km

Periapsis: 670.086 km

RAAN: 72.8045 deg

Eccentricy: 0.7123863

Argument of periapsis: 267.0791 deg

Mean anomaly: 16.8321 deg

Mean motion: 2.26306925 rev/day

Mean motion (dot): -0.00000134 rev/day2

B* drag term: -0.0011175 1/REarth

Two-line elements (TLE)

Creation date: July 5, 2025, 5:45 p.m.

Reference frame: TEME

Reference center: EARTH

Epoch: July 5, 2025, 2:40 a.m. UTC

TLE line 0: 0 ARIANE 5 DEB (SYLDA)

TLE line 1: 1 27952U 03043F 25186.11152717 -.00000134 00000-0 -11175-2 0 9999

TLE line 2: 2 27952 7.4084 72.8045 7123863 267.0791 16.8321 2.26306925179607

Live tracking on map

Real-time ground track for satellite ARIANE 5 DEB (SYLDA).

In-orbit conjunctions

A list of the most updated potential collisions computed for object ARIANE 5 DEB (SYLDA).

Target Orbit TCA Probability of collision Miss distance Type
SL-12 R/B(2) OTHER 2024-09-22 02:43:53 TBA 1565.0 (m) ROCKET BODY
ARIANE 42P R/B MEO 2024-08-24 10:54:15 TBA 3917.0 (m) ROCKET BODY

Associated space launch

INSAT-3A is a multipurpose satellite for providing telecommunications, television broadcasting, meteorological and search & rescue services. INSAT-3A payloads include Normal C-band transponders with expanded coverage from Middle East to South East Asia, Extended C-band transponders providing India coverage and Ku-band transponders providing India coverage. The satellite also carries one Data Relay Transponder (DRT) and one Satellite Aided Search and Rescue (SAS&R) payload. SAS&R payload has a global receive coverage with 406 MHz uplink and C-band downlink with India coverage for the relay of signals from distress beacons in sea, air or land.

ARIANE 5 DEB (SYLDA) was lifted into orbit during the mission ‘Ariane 5 G | INSAT-3E, eBird 1, SMART-1’, on board a Ariane 5 G space rocket.

The launch took place on Sept. 27, 2003, 11:14 p.m. from Ariane Launch Area 3.

For more information about the launch, click the button.

Launch to space Ariane 5 G | INSAT-3E, eBird 1, SMART-1
Ariane 5 G | INSAT-3E, eBird 1, SMART-1

Agency: N/A

Status: Launch Successful

Launch date: Sept. 27, 2003, 11:14 p.m. UTC

Rocket: Ariane 5 G

Launch pad: Ariane Launch Area 3

Location: Guiana Space Centre, French Guiana

...

Latest news about this satellite

There are no fresh news available about this satellite. Check back as we update our databases every day.


Newsletter sign-up

Weekly statistics, charts and insights to help you stay on top of the space industry.